XSN16L EGSS-LEMD

Flight info

Callsign XSN16L
Flight time 2h 18m
Altitude 31000
Route NUGBO M183 SILVA Q41 SAM M195 MARUK N621 LELNA DCT NOVAN DCT DELOG N864 NONTU
Aircraft B462/M-SDFGIRWY/LB1

Departure

Time 2026-05-04 16:30
Airport London Stansted Airport (EGSS)

Arrival

Time 2026-05-04 18:48
Airport Adolfo Suárez Madrid–Barajas Airport (LEMD)
Time Latitude Longitude Altitude Speed Heading
2026-05-04 16:29 51.96073 -0.16268 8342 ft 308 kts 252°
2026-05-04 16:30 51.94753 -0.26520 10336 ft 315 kts 258°
2026-05-04 16:31 51.93829 -0.33509 11337 ft 322 kts 258°
2026-05-04 16:31 51.92372 -0.44171 12890 ft 325 kts 250°
2026-05-04 16:32 51.86917 -0.49949 13958 ft 340 kts 189°
2026-05-04 16:33 51.82735 -0.53129 14759 ft 335 kts 214°
2026-05-04 16:33 51.78704 -0.57138 15251 ft 344 kts 211°
2026-05-04 16:34 51.74579 -0.61045 15978 ft 344 kts 210°
2026-05-04 16:34 51.72501 -0.62976 16290 ft 346 kts 210°
2026-05-04 16:35 51.66236 -0.68836 17276 ft 350 kts 210°
2026-05-04 16:35 51.59881 -0.74830 18207 ft 355 kts 210°
2026-05-04 16:36 51.57760 -0.76862 18487 ft 356 kts 210°
2026-05-04 16:36 51.53478 -0.80925 19014 ft 358 kts 210°
2026-05-04 16:37 51.49172 -0.84992 19551 ft 360 kts 210°
2026-05-04 16:37 51.47005 -0.87027 19817 ft 361 kts 210°
2026-05-04 16:37 51.42654 -0.91093 20330 ft 363 kts 210°
2026-05-04 16:38 51.38267 -0.95166 20848 ft 365 kts 210°
2026-05-04 16:39 51.31645 -1.01287 21473 ft 371 kts 210°
2026-05-04 16:39 51.27154 -1.05407 21962 ft 373 kts 210°
2026-05-04 16:40 51.22671 -1.09609 22433 ft 375 kts 211°
2026-05-04 16:40 51.18145 -1.13785 22903 ft 377 kts 210°
2026-05-04 16:41 51.13598 -1.18003 23346 ft 379 kts 211°
2026-05-04 16:41 51.06718 -1.24293 23940 ft 381 kts 210°
2026-05-04 16:42 50.99836 -1.30550 24505 ft 382 kts 210°
2026-05-04 16:43 50.95226 -1.34797 24856 ft 383 kts 211°
2026-05-04 16:43 50.90777 -1.39451 25193 ft 384 kts 214°
2026-05-04 16:43 50.88564 -1.41831 25367 ft 384 kts 213°
2026-05-04 16:44 50.79597 -1.51079 26036 ft 385 kts 212°
2026-05-04 16:45 50.75405 -1.55434 26269 ft 384 kts 212°
2026-05-04 16:46 50.68657 -1.62402 26480 ft 387 kts 212°
2026-05-04 16:46 50.64180 -1.67007 26650 ft 387 kts 212°
2026-05-04 16:47 50.59676 -1.71623 26865 ft 387 kts 212°
2026-05-04 16:47 50.55163 -1.76254 27026 ft 387 kts 211°
2026-05-04 16:48 50.48382 -1.83235 27250 ft 388 kts 211°
2026-05-04 16:48 50.46107 -1.85520 27355 ft 388 kts 211°
2026-05-04 16:49 50.41581 -1.90152 27506 ft 389 kts 212°
2026-05-04 16:49 50.37103 -1.94625 27654 ft 389 kts 210°
2026-05-04 16:50 50.32562 -1.99133 27788 ft 389 kts 210°
2026-05-04 16:50 50.28909 -2.02946 27888 ft 390 kts 211°
2026-05-04 16:51 50.24242 -2.07324 27979 ft 387 kts 197°
2026-05-04 16:51 50.21602 -2.08082 28019 ft 386 kts 184°
2026-05-04 16:51 50.16263 -2.08445 28120 ft 387 kts 182°
2026-05-04 16:52 50.10881 -2.08935 28229 ft 387 kts 185°
2026-05-04 16:53 50.08589 -2.09331 28278 ft 388 kts 185°
2026-05-04 16:54 50.01477 -2.10204 28354 ft 369 kts 184°
2026-05-04 16:55 49.92525 -2.13124 28230 ft 295 kts 197°
2026-05-04 16:55 49.88838 -2.15110 28146 ft 274 kts 195°
2026-05-04 16:56 49.85108 -2.16835 28070 ft 285 kts 193°
2026-05-04 16:56 49.79365 -2.19434 28425 ft 288 kts 195°
2026-05-04 16:57 49.77448 -2.20370 28570 ft 287 kts 195°
2026-05-04 16:57 49.73624 -2.22171 28845 ft 286 kts 194°
2026-05-04 16:58 49.70506 -2.23626 29065 ft 283 kts 194°
2026-05-04 16:58 49.68625 -2.24512 29207 ft 282 kts 194°
2026-05-04 16:59 49.65472 -2.25983 29471 ft 281 kts 193°
2026-05-04 17:00 49.58030 -2.29345 30035 ft 278 kts 194°
2026-05-04 17:00 49.52514 -2.31941 30394 ft 274 kts 193°
2026-05-04 17:01 49.48862 -2.33603 30650 ft 271 kts 192°
2026-05-04 17:01 49.45283 -2.35148 30899 ft 268 kts 193°
2026-05-04 17:02 49.41688 -2.36839 30977 ft 272 kts 194°
2026-05-04 17:02 49.38043 -2.38541 30996 ft 276 kts 193°
2026-05-04 17:03 49.36195 -2.39397 30994 ft 278 kts 193°
2026-05-04 17:03 49.34339 -2.40256 30993 ft 279 kts 193°
2026-05-04 17:03 49.30594 -2.41998 31001 ft 282 kts 193°
2026-05-04 17:04 49.26805 -2.43653 30991 ft 284 kts 193°
2026-05-04 17:04 49.23009 -2.45370 30991 ft 288 kts 193°
2026-05-04 17:05 49.19130 -2.47134 30999 ft 293 kts 193°
2026-05-04 17:05 49.15179 -2.48927 30992 ft 299 kts 193°
2026-05-04 17:06 49.09125 -2.51695 30991 ft 307 kts 194°
2026-05-04 17:07 49.04266 -2.53896 30990 ft 314 kts 193°
2026-05-04 17:07 48.99292 -2.56116 30985 ft 322 kts 193°
2026-05-04 17:08 48.93410 -2.58790 30986 ft 330 kts 193°
2026-05-04 17:09 48.88959 -2.60765 30985 ft 337 kts 193°
2026-05-04 17:09 48.84451 -2.62801 31002 ft 343 kts 193°
2026-05-04 17:10 48.72694 -2.68001 30985 ft 360 kts 193°
2026-05-04 17:11 48.67849 -2.70178 30981 ft 366 kts 193°
2026-05-04 17:12 48.60421 -2.73455 30984 ft 375 kts 193°
2026-05-04 17:13 48.47652 -2.79126 30981 ft 389 kts 192°
2026-05-04 17:14 48.37131 -2.83661 30981 ft 399 kts 193°
2026-05-04 17:15 48.29058 -2.87167 30973 ft 406 kts 194°
2026-05-04 17:16 48.18127 -2.91927 30978 ft 405 kts 194°
2026-05-04 17:17 48.07215 -2.96689 30965 ft 410 kts 193°
2026-05-04 17:17 47.99419 -3.00056 30952 ft 369 kts 193°
2026-05-04 17:18 47.96976 -3.01112 30946 ft 372 kts 193°
2026-05-04 17:19 47.86886 -3.05431 30964 ft 382 kts 194°
2026-05-04 17:20 47.76518 -3.09878 30968 ft 393 kts 194°
2026-05-04 17:20 47.69395 -3.12987 30969 ft 399 kts 194°
2026-05-04 17:21 47.58631 -3.17560 30967 ft 407 kts 193°
2026-05-04 17:22 47.53156 -3.19887 30965 ft 411 kts 194°
2026-05-04 17:23 47.42102 -3.24603 30961 ft 415 kts 194°
2026-05-04 17:24 47.33767 -3.28091 30976 ft 413 kts 194°
2026-05-04 17:25 47.22650 -3.32689 30971 ft 411 kts 195°
2026-05-04 17:26 47.11738 -3.37284 30968 ft 412 kts 194°
2026-05-04 17:27 46.97967 -3.42974 30971 ft 412 kts 194°
2026-05-04 17:28 46.86928 -3.47576 30970 ft 412 kts 194°
2026-05-04 17:29 46.70384 -3.54373 30970 ft 411 kts 195°
2026-05-04 17:31 46.56634 -3.59979 30979 ft 410 kts 194°
2026-05-04 17:32 46.42916 -3.65558 30981 ft 410 kts 195°
2026-05-04 17:33 46.31920 -3.70020 30980 ft 410 kts 192°
2026-05-04 17:34 46.20601 -3.71586 30980 ft 408 kts 185°
2026-05-04 17:35 46.06517 -3.73758 30980 ft 408 kts 185°
2026-05-04 17:36 46.00868 -3.74549 30984 ft 408 kts 185°
2026-05-04 17:36 45.95225 -3.75409 30985 ft 408 kts 185°
2026-05-04 17:37 45.89563 -3.76220 30978 ft 408 kts 186°
2026-05-04 17:37 45.85417 -3.76857 30982 ft 410 kts 186°
2026-05-04 17:39 45.79149 -3.77777 30985 ft 407 kts 185°
2026-05-04 17:39 45.73533 -3.78628 30983 ft 404 kts 186°
2026-05-04 17:40 45.68875 -3.79323 30982 ft 403 kts 186°
2026-05-04 17:40 45.63345 -3.80160 30984 ft 401 kts 186°
2026-05-04 17:41 45.57800 -3.80915 30987 ft 399 kts 186°
2026-05-04 17:41 45.52277 -3.81723 30987 ft 398 kts 186°
2026-05-04 17:42 45.46782 -3.82542 30989 ft 397 kts 186°
2026-05-04 17:42 45.41299 -3.83357 30988 ft 395 kts 186°
2026-05-04 17:43 45.35821 -3.84172 30985 ft 394 kts 186°
2026-05-04 17:43 45.30400 -3.84911 30987 ft 393 kts 186°
2026-05-04 17:44 45.24958 -3.85668 30996 ft 392 kts 186°
2026-05-04 17:44 45.19522 -3.86430 30999 ft 392 kts 186°
2026-05-04 17:45 45.14093 -3.87201 30992 ft 392 kts 186°
2026-05-04 17:45 45.08677 -3.87990 30992 ft 391 kts 187°
2026-05-04 17:46 45.04179 -3.88628 30990 ft 390 kts 186°
2026-05-04 17:46 44.98775 -3.89412 30994 ft 390 kts 187°
2026-05-04 17:47 44.93372 -3.90175 30997 ft 389 kts 186°
2026-05-04 17:47 44.87982 -3.90953 30997 ft 389 kts 187°
2026-05-04 17:48 44.82605 -3.91757 31004 ft 388 kts 186°
2026-05-04 17:48 44.77263 -3.92486 30999 ft 388 kts 187°
2026-05-04 17:49 44.71893 -3.93276 31002 ft 387 kts 187°
2026-05-04 17:49 44.66525 -3.94007 31003 ft 387 kts 186°
2026-05-04 17:50 44.61164 -3.94781 31000 ft 387 kts 187°
2026-05-04 17:50 44.55806 -3.95515 31002 ft 386 kts 187°
2026-05-04 17:51 44.50454 -3.96292 30997 ft 386 kts 187°
2026-05-04 17:51 44.45114 -3.97054 31005 ft 386 kts 187°
2026-05-04 17:52 44.39770 -3.97816 31005 ft 386 kts 187°
2026-05-04 17:52 44.34464 -3.98564 31005 ft 386 kts 187°
2026-05-04 17:53 44.29067 -3.98618 31011 ft 387 kts 177°
2026-05-04 17:53 44.23731 -3.97820 31010 ft 387 kts 176°
2026-05-04 17:54 44.18365 -3.97333 31011 ft 386 kts 179°
2026-05-04 17:54 44.13835 -3.96932 30998 ft 387 kts 179°
2026-05-04 17:55 44.08464 -3.96383 31007 ft 386 kts 179°
2026-05-04 17:55 44.03130 -3.95879 31011 ft 386 kts 179°
2026-05-04 17:56 43.97757 -3.95354 31014 ft 387 kts 179°
2026-05-04 17:56 43.92394 -3.94827 31012 ft 386 kts 179°
2026-05-04 17:57 43.87023 -3.94287 31013 ft 386 kts 179°
2026-05-04 17:57 43.81657 -3.93729 31017 ft 387 kts 179°
2026-05-04 17:58 43.76291 -3.93207 31010 ft 386 kts 180°
2026-05-04 17:58 43.70952 -3.92711 31017 ft 386 kts 180°
2026-05-04 17:59 43.65595 -3.92241 31019 ft 386 kts 180°
2026-05-04 18:00 43.57542 -3.91450 31021 ft 386 kts 180°
2026-05-04 18:00 43.52181 -3.90940 31019 ft 386 kts 180°
2026-05-04 18:01 43.46823 -3.90418 31031 ft 386 kts 180°
2026-05-04 18:01 43.41489 -3.90478 31033 ft 381 kts 191°
2026-05-04 18:02 43.33736 -3.91961 31023 ft 381 kts 191°
2026-05-04 18:02 43.28639 -3.92647 31025 ft 382 kts 189°
2026-05-04 18:03 43.23400 -3.93402 31038 ft 382 kts 190°
2026-05-04 18:03 43.18310 -3.94179 31039 ft 382 kts 190°
2026-05-04 18:04 43.13018 -3.94980 31025 ft 382 kts 191°
2026-05-04 18:05 43.05073 -3.96121 31049 ft 383 kts 190°
2026-05-04 18:05 42.99765 -3.96873 31035 ft 383 kts 191°
2026-05-04 18:06 42.91822 -3.98090 31023 ft 383 kts 191°
2026-05-04 18:06 42.86516 -3.98848 31035 ft 383 kts 191°
2026-05-04 18:07 42.81213 -3.99626 31035 ft 383 kts 191°
2026-05-04 18:07 42.75907 -4.00406 31019 ft 383 kts 191°
2026-05-04 18:08 42.70602 -4.01147 31024 ft 383 kts 191°
2026-05-04 18:08 42.65356 -4.01936 30984 ft 372 kts 191°
2026-05-04 18:09 42.60329 -4.02688 30336 ft 354 kts 191°
2026-05-04 18:09 42.55525 -4.03358 29625 ft 339 kts 191°
2026-05-04 18:10 42.53201 -4.03681 29213 ft 332 kts 192°
2026-05-04 18:10 42.50927 -4.04004 28837 ft 325 kts 192°
2026-05-04 18:10 42.48701 -4.04334 28464 ft 319 kts 192°
2026-05-04 18:10 42.46509 -4.04664 28100 ft 313 kts 192°
2026-05-04 18:11 42.44364 -4.04989 27736 ft 308 kts 192°
2026-05-04 18:11 42.42244 -4.05287 27379 ft 303 kts 192°
2026-05-04 18:11 42.40181 -4.05562 27035 ft 299 kts 191°
2026-05-04 18:11 42.38661 -4.05764 26779 ft 299 kts 191°
2026-05-04 18:13 42.37551 -4.05915 26603 ft 301 kts 191°
2026-05-04 18:13 42.35457 -4.06209 26267 ft 303 kts 191°
2026-05-04 18:13 42.31250 -4.06822 25616 ft 308 kts 191°
2026-05-04 18:14 42.29115 -4.07142 25302 ft 310 kts 191°
2026-05-04 18:14 42.26951 -4.07470 24987 ft 316 kts 191°
2026-05-04 18:14 42.24735 -4.07808 24681 ft 324 kts 191°
2026-05-04 18:15 42.20147 -4.08470 24061 ft 338 kts 190°
2026-05-04 18:15 42.15364 -4.09167 23453 ft 352 kts 189°
2026-05-04 18:15 42.12905 -4.09502 23098 ft 357 kts 189°
2026-05-04 18:16 42.10422 -4.09840 22714 ft 361 kts 189°
2026-05-04 18:16 42.07910 -4.10185 22373 ft 364 kts 189°
2026-05-04 18:16 42.05414 -4.10519 22032 ft 367 kts 189°
2026-05-04 18:17 42.00278 -4.11251 21350 ft 373 kts 189°
2026-05-04 18:17 41.97681 -4.11543 21020 ft 376 kts 187°
2026-05-04 18:17 41.92435 -4.12100 20355 ft 380 kts 188°
2026-05-04 18:18 41.89791 -4.12416 20013 ft 382 kts 188°
2026-05-04 18:18 41.87139 -4.12733 19698 ft 383 kts 188°
2026-05-04 18:18 41.84473 -4.13043 19378 ft 384 kts 188°
2026-05-04 18:18 41.81853 -4.13321 19055 ft 371 kts 187°
2026-05-04 18:19 41.76900 -4.13882 18408 ft 349 kts 188°
2026-05-04 18:19 41.74507 -4.14150 18060 ft 340 kts 187°
2026-05-04 18:19 41.72173 -4.14398 17696 ft 332 kts 188°
2026-05-04 18:20 41.69900 -4.14667 17319 ft 325 kts 188°
2026-05-04 18:20 41.67666 -4.14925 16959 ft 319 kts 188°
2026-05-04 18:20 41.65470 -4.15181 16614 ft 314 kts 188°
2026-05-04 18:20 41.63308 -4.15439 16282 ft 310 kts 188°
2026-05-04 18:21 41.61166 -4.15677 15941 ft 308 kts 187°
2026-05-04 18:21 41.59029 -4.15901 15606 ft 306 kts 187°
2026-05-04 18:21 41.57633 -4.16049 15390 ft 305 kts 187°
2026-05-04 18:21 41.55583 -4.16266 15161 ft 300 kts 187°
2026-05-04 18:22 41.53528 -4.16488 15049 ft 292 kts 188°
2026-05-04 18:22 41.51534 -4.16731 15012 ft 284 kts 188°
2026-05-04 18:22 41.49612 -4.16963 14989 ft 277 kts 188°
2026-05-04 18:22 41.47718 -4.17192 14970 ft 270 kts 188°
2026-05-04 18:23 41.45869 -4.17404 14968 ft 264 kts 188°
2026-05-04 18:23 41.44057 -4.17613 14967 ft 259 kts 188°
2026-05-04 18:23 41.42277 -4.17817 14968 ft 254 kts 188°
2026-05-04 18:23 41.40526 -4.18016 14969 ft 251 kts 188°
2026-05-04 18:24 41.38788 -4.18211 14849 ft 252 kts 188°
2026-05-04 18:24 41.36996 -4.18420 14462 ft 264 kts 188°
2026-05-04 18:24 41.35126 -4.18565 14093 ft 275 kts 180°
2026-05-04 18:24 41.33185 -4.18178 13727 ft 289 kts 170°
2026-05-04 18:25 41.31219 -4.17425 13319 ft 299 kts 165°
2026-05-04 18:25 41.29219 -4.16543 12910 ft 306 kts 165°
2026-05-04 18:25 41.27192 -4.15616 12499 ft 311 kts 165°
2026-05-04 18:25 41.25142 -4.14740 12090 ft 315 kts 166°
2026-05-04 18:26 41.23032 -4.13896 11701 ft 318 kts 167°
2026-05-04 18:26 41.20902 -4.13059 11302 ft 321 kts 167°
2026-05-04 18:26 41.18752 -4.12192 10915 ft 323 kts 166°
2026-05-04 18:26 41.16593 -4.11315 10526 ft 325 kts 167°
2026-05-04 18:27 41.14428 -4.10464 10254 ft 322 kts 167°
2026-05-04 18:27 41.12302 -4.09619 10143 ft 316 kts 167°
2026-05-04 18:27 41.10212 -4.08786 10087 ft 310 kts 167°
2026-05-04 18:27 41.08168 -4.07978 10048 ft 304 kts 167°
2026-05-04 18:28 41.06158 -4.07175 10040 ft 300 kts 167°
2026-05-04 18:28 41.04167 -4.06376 10029 ft 298 kts 166°
2026-05-04 18:28 41.02192 -4.05577 10033 ft 295 kts 166°
2026-05-04 18:28 41.00237 -4.04787 10035 ft 294 kts 166°
2026-05-04 18:29 40.98286 -4.03997 10040 ft 292 kts 166°
2026-05-04 18:29 40.96347 -4.03212 10041 ft 291 kts 166°
2026-05-04 18:29 40.94413 -4.02428 10049 ft 290 kts 166°
2026-05-04 18:29 40.92480 -4.01644 10053 ft 290 kts 166°
2026-05-04 18:30 40.88629 -4.00084 10051 ft 289 kts 167°
2026-05-04 18:30 40.86695 -3.99325 10054 ft 289 kts 167°
2026-05-04 18:30 40.84766 -3.98571 10072 ft 289 kts 167°
2026-05-04 18:31 40.82839 -3.97801 10042 ft 289 kts 166°
2026-05-04 18:31 40.80916 -3.97034 10044 ft 288 kts 167°
2026-05-04 18:31 40.78992 -3.96276 10055 ft 288 kts 167°
2026-05-04 18:31 40.77105 -3.95520 10053 ft 288 kts 166°
2026-05-04 18:32 40.75189 -3.94755 10060 ft 287 kts 166°
2026-05-04 18:32 40.73272 -3.93985 10052 ft 287 kts 167°
2026-05-04 18:32 40.71360 -3.93231 10046 ft 287 kts 167°
2026-05-04 18:32 40.69449 -3.92479 10043 ft 286 kts 167°
2026-05-04 18:33 40.68184 -3.91973 10041 ft 286 kts 167°
2026-05-04 18:33 40.66284 -3.91216 10035 ft 285 kts 166°
2026-05-04 18:33 40.64390 -3.90463 10042 ft 285 kts 166°
2026-05-04 18:33 40.62490 -3.89705 10046 ft 284 kts 166°
2026-05-04 18:34 40.59981 -3.88707 10052 ft 285 kts 167°
2026-05-04 18:34 40.58698 -3.88196 10051 ft 285 kts 167°
2026-05-04 18:34 40.56807 -3.87444 10049 ft 284 kts 167°
2026-05-04 18:34 40.54908 -3.86696 10046 ft 284 kts 167°
2026-05-04 18:35 40.53017 -3.85969 10044 ft 283 kts 167°
2026-05-04 18:35 40.51172 -3.85247 10040 ft 283 kts 167°
2026-05-04 18:35 40.49241 -3.84480 10033 ft 283 kts 166°
2026-05-04 18:35 40.47365 -3.83735 10029 ft 282 kts 167°
2026-05-04 18:36 40.45507 -3.82997 10024 ft 282 kts 167°
2026-05-04 18:36 40.43611 -3.82263 9900 ft 286 kts 167°
2026-05-04 18:36 40.41687 -3.81520 9752 ft 290 kts 166°
2026-05-04 18:36 40.39716 -3.80732 9581 ft 294 kts 165°
2026-05-04 18:37 40.37786 -3.79933 9421 ft 296 kts 166°
2026-05-04 18:37 40.35811 -3.79153 9270 ft 294 kts 166°
2026-05-04 18:37 40.33879 -3.78389 9110 ft 286 kts 166°
2026-05-04 18:37 40.31997 -3.77645 8943 ft 279 kts 166°
2026-05-04 18:38 40.30154 -3.76916 8776 ft 274 kts 166°
2026-05-04 18:38 40.28424 -3.75922 8596 ft 274 kts 145°
2026-05-04 18:38 40.27241 -3.73967 8411 ft 278 kts 115°
2026-05-04 18:38 40.26660 -3.71558 8218 ft 277 kts 109°
2026-05-04 18:39 40.25988 -3.69192 8027 ft 276 kts 115°
2026-05-04 18:39 40.25198 -3.66905 7833 ft 276 kts 118°
2026-05-04 18:39 40.24301 -3.64690 7629 ft 275 kts 121°
2026-05-04 18:39 40.23380 -3.62488 7419 ft 276 kts 119°
2026-05-04 18:40 40.22515 -3.60243 7213 ft 276 kts 117°
2026-05-04 18:40 40.21666 -3.57995 7012 ft 276 kts 118°
2026-05-04 18:40 40.20781 -3.55767 6814 ft 275 kts 120°
2026-05-04 18:40 40.19875 -3.53560 6610 ft 275 kts 119°
2026-05-04 18:41 40.18991 -3.51338 6409 ft 275 kts 118°
2026-05-04 18:41 40.18128 -3.49105 6182 ft 276 kts 116°
2026-05-04 18:41 40.17634 -3.46737 5978 ft 276 kts 89°
2026-05-04 18:41 40.18082 -3.44340 5805 ft 272 kts 58°
2026-05-04 18:42 40.19316 -3.42523 5649 ft 267 kts 33°
2026-05-04 18:42 40.20861 -3.41199 5477 ft 266 kts 28°
2026-05-04 18:42 40.22475 -3.40026 5286 ft 265 kts 25°
2026-05-04 18:42 40.24114 -3.38914 5078 ft 263 kts 24°
2026-05-04 18:43 40.25817 -3.38145 4878 ft 256 kts
2026-05-04 18:43 40.27558 -3.38324 4688 ft 249 kts 349°
2026-05-04 18:43 40.29289 -3.38497 4488 ft 250 kts 354°
2026-05-04 18:43 40.30963 -3.38892 4290 ft 241 kts 329°
2026-05-04 18:44 40.32258 -3.40192 4132 ft 231 kts 314°
2026-05-04 18:44 40.33039 -3.41124 4068 ft 226 kts 314°
2026-05-04 18:44 40.34547 -3.42942 4009 ft 214 kts 315°
2026-05-04 18:44 40.35640 -3.44207 3982 ft 205 kts 315°
2026-05-04 18:45 40.36668 -3.45416 3978 ft 197 kts 315°
2026-05-04 18:45 40.37668 -3.46553 3975 ft 190 kts 317°
2026-05-04 18:45 40.38681 -3.47627 3939 ft 185 kts 319°
2026-05-04 18:45 40.39734 -3.48699 3649 ft 196 kts 320°
2026-05-04 18:46 40.40833 -3.49802 3400 ft 204 kts 320°
2026-05-04 18:46 40.41982 -3.50947 3108 ft 209 kts 321°
2026-05-04 18:46 40.43093 -3.52053 2852 ft 186 kts 321°
2026-05-04 18:46 40.44023 -3.52998 2604 ft 153 kts 320°
2026-05-04 18:47 40.44785 -3.53781 2388 ft 126 kts 319°
2026-05-04 18:47 40.45409 -3.54427 2200 ft 102 kts 316°
2026-05-04 18:47 40.45952 -3.55007 1979 ft 99 kts 317°
2026-05-04 18:47 40.46538 -3.55613 2043 ft 118 kts 319°
2026-05-04 18:48 40.47143 -3.56237 1995 ft 104 kts 321°
2026-05-04 18:48 40.47690 -3.56784 2032 ft 92 kts 322°
2026-05-04 18:48 40.48143 -3.57247 2005 ft 69 kts 322°
2026-05-04 18:48 40.48316 -3.57486 1999 ft 16 kts 294°
2026-05-04 18:49 40.48349 -3.57594 1996 ft 10 kts 288°
2026-05-04 18:49 40.48327 -3.57670 1995 ft 10 kts 195°
2026-05-04 18:49 40.48261 -3.57640 1996 ft 11 kts 146°
2026-05-04 18:49 40.48193 -3.57569 1998 ft 14 kts 141°
2026-05-04 18:50 40.48111 -3.57485 2001 ft 16 kts 142°
2026-05-04 18:50 40.48014 -3.57385 2003 ft 19 kts 142°
2026-05-04 18:50 40.47900 -3.57272 2004 ft 22 kts 142°
2026-05-04 18:50 40.47762 -3.57128 1999 ft 27 kts 142°
2026-05-04 18:51 40.47659 -3.57024 1996 ft 18 kts 144°
2026-05-04 18:51 40.47554 -3.56915 1993 ft 21 kts 140°
2026-05-04 18:51 40.47445 -3.56801 1989 ft 14 kts 144°
2026-05-04 18:51 40.47357 -3.56809 1988 ft 15 kts 224°
2026-05-04 18:52 40.47292 -3.56903 1987 ft 14 kts 210°
2026-05-04 18:52 40.47197 -3.56917 1986 ft 14 kts 168°
2026-05-04 18:52 40.47116 -3.56848 1984 ft 11 kts 137°
2026-05-04 18:52 40.47061 -3.56836 1982 ft 8 kts 223°
2026-05-04 18:53 40.47031 -3.56884 1978 ft 4 kts 233°
2026-05-04 18:53 40.47027 -3.56891 1981 ft 0 kts 232°